Location: Hamilton Branch State Park
(33.7552°N, 82.2209°W)
Time: 06:55:39
(UTC-04:00)

Hubble Space Telescope - Visible Passes

Search period start: 16 September 2019 00:00
Search period end: 26 September 2019 00:00
Orbit: 536 x 540 km, 28.5° (Epoch: 16 September)

Date Brightness Start Highest point End Pass type
(mag) Time Alt. Az. Time Alt. Az. Time Alt. Az.
16 Sep 1.5 06:01:10 26° SW 06:02:55 39° S 06:06:47 10° ESE visible
17 Sep 1.5 05:51:16 33° SW 05:52:19 39° S 05:56:11 10° ESE visible
18 Sep 1.4 05:41:23 38° SSW 05:41:44 39° S 05:45:35 10° ESE visible
19 Sep 1.6 05:31:32 36° S 05:31:32 36° S 05:34:58 10° ESE visible
20 Sep 2.2 05:21:43 29° SSE 05:21:43 29° SSE 05:24:19 10° ESE visible
21 Sep 2.8 05:11:59 20° SE 05:11:59 20° SE 05:13:38 10° SE visible
21 Sep 2.8 06:48:12 10° WSW 06:50:37 15° SSW 06:53:02 10° SSE visible
22 Sep 3.4 05:02:18 13° SE 05:02:18 13° SE 05:02:54 10° SE visible
22 Sep 2.9 06:38:15 10° SW 06:39:57 12° SSW 06:41:40 10° S visible
